Weather in Prachinburi

Thailand     14°03′29″N   101°21′57″E
temp.,
°C
wind,
m/s
gust,
m/s
humid.,
%
clouds,
%
prec.,
mm/h
press.,
hPa
HPBL,
m
29 june, wed
wed2901:00+27s22795 0.0 100518
04:00+26sse118399 0.0 100423
07:00+27ese1181100 0.0 1005110
10:00+32w3462100 0.0 10051355
13:00+34wsw4547100 0.0 10031799
16:00+35w3544100 0.0 10012028
19:00+30sw4964100 0.0 1001213
22:00+29sw116883 0.0 100435
30 june, thu
thu3001:00+27se1177100 0.2 100312
04:00+27wsw1179100 0.0 100322
07:00+27w2477100 0.0 1004217
10:00+29w3667100 0.0 1005769
13:00+35w674894 0.0 10022171
16:00+31ssw5965100 0.1 1001307
19:00+28sw61175100 0.9 1002340
22:00+26wsw1790100 6.1 1005278
1 july, fri
fri101:00+26wsw2685100 6.1 1004236
04:00+25wsw2286100 0.0 100334
07:00+26wsw1381100 0.0 1005166
10:00+31w4760100 0.0 10051298
13:00+34w674877 0.0 10032077
16:00+31wsw476091 0.1 1001232
19:00+29ssw61168100 0.4 1003380
22:00+26wsw3782100 1.6 1005185
2 july, sat
sat201:00+26w2282100 1.6 100420
04:00+25wnw1182100 0.0 100311
07:00+26w1679100 0.0 1004257
10:00+30wsw5761100 0.0 10051091
13:00+32wsw5752100 0.0 10031806
16:00+33sw665250 0.0 10011721
19:00+28sw61166100 0.1 1002468
22:00+27wsw4107151 0.0 1005379
3 july, sun
sun301:00+26w237595 0.1 100478
04:00+25wnw1277100 0.0 100319
07:00+26wnw1376100 0.0 1004184
10:00+30wsw4663100 0.0 10051008
13:00+33wsw6752100 0.0 10031895
16:00+28ssw61074100 0.8 1002385
19:00+28sw5973100 1.8 1003286
22:00+27wsw3580100 0.1 1004145